Home   Weather   Keratsini   Past weeks

Flag for Greece Past Weather in Keratsini, Greece — Yesterday and Last 2 Weeks

68 °F

Passing clouds.

Feels Like: 68 °F
Forecast: 60 / 68 °F
Wind: 3 mph from North

Location: Elefsis Airport

Current Time: Oct 26, 2016 at 8:11:58 PM

Latest Report: Oct 26, 2016 at 7:20 PM

Visibility: N/A

Pressure: 30.01 "Hg

Humidity: 64%

Dew Point: 55 °F

Location of KeratsiniLocation

Past Weather in Keratsini — Graph


Keratsini Temperature Yesterday

Maximum temperature yesterday: 72 °F (at 1:50 PM)
Minimum temperature yesterday: 63 °F (at 12:50 AM)
Average temperature yesterday: 66 °F

High & Low Weather Summary for the Past Weeks

High82 °F (Oct 12, 4:20 PM)100% (Oct 19, 10:50 PM)30.30 "Hg (Oct 19, 10:50 PM)
Low50 °F (Oct 19, 6:50 AM)13% (Oct 13, 4:50 PM)29.74 "Hg (Oct 12, 1:50 AM)
Average66 °F59%30.10 "Hg
* Reported Oct 11 6:20 PM — Oct 26 6:50 PM, Keratsini, Weather by CustomWeather, © 2016

Note: Actual official high and low records may vary slightly from our data, if they occured in-between our weather recording intervals... More about our weather records


Keratsini Weather History for the Previous 24 Hours

Scroll right to see more
Time TempWeatherWind HumidityBarometerVisibility
6:50 PM
Wed, Oct 26
70 °FPassing clouds.3 mph60%30.01 "HgN/A
6:20 PM70 °FPartly sunny.5 mph57%30.01 "HgN/A
5:50 PM72 °FPartly sunny.5 mph53%30.01 "HgN/A
4:50 PM73 °FPartly sunny.3 mph47%30.01 "HgN/A
4:20 PM75 °FPartly sunny.8 mph39%30.01 "HgN/A
3:50 PM75 °FPartly sunny.9 mph39%30.01 "HgN/A
3:20 PM73 °FPartly sunny.9 mph44%30.04 "HgN/A
2:50 PM75 °FScattered clouds.12 mph41%30.04 "HgN/A
2:20 PM73 °FScattered clouds.13 mph44%30.07 "HgN/A
1:50 PM72 °FScattered clouds.15 mph47%30.07 "HgN/A
1:20 PM72 °FPassing clouds.12 mph47%30.09 "HgN/A
12:50 PM72 °FPassing clouds.12 mph47%30.09 "HgN/A
12:20 PM70 °FPassing clouds.13 mph50%30.15 "HgN/A
11:50 AM70 °FPassing clouds.13 mph50%30.15 "HgN/A
11:20 AM68 °FPassing clouds.14 mph53%30.15 "HgN/A
10:50 AM68 °FPassing clouds.14 mph53%30.15 "HgN/A
10:20 AM66 °FPassing clouds.13 mph56%30.15 "HgN/A
9:50 AM66 °FPassing clouds.10 mph56%30.15 "HgN/A
9:20 AM64 °FPassing clouds.12 mph64%30.15 "HgN/A
8:50 AM64 °FPassing clouds.12 mph64%30.15 "HgN/A
8:20 AM63 °FPassing clouds.14 mph64%30.15 "HgN/A
7:50 AM63 °FPassing clouds.15 mph64%30.15 "HgN/A
7:20 AM63 °FPassing clouds.14 mph64%30.12 "HgN/A
6:50 AM63 °FPassing clouds.14 mph64%30.12 "HgN/A
6:20 AM63 °FPassing clouds.14 mph64%30.15 "HgN/A
5:50 AM63 °FPassing clouds.15 mph64%30.12 "HgN/A
5:20 AM63 °FPassing clouds.12 mph64%30.12 "HgN/A
4:50 AM63 °FPassing clouds.12 mph64%30.15 "HgN/A
4:20 AM63 °FPassing clouds.12 mph64%30.15 "HgN/A
3:50 AM63 °FPassing clouds.14 mph64%30.15 "HgN/A
3:20 AM63 °FPassing clouds.15 mph64%30.15 "HgN/A
2:50 AM63 °FPassing clouds.12 mph64%30.18 "HgN/A
2:20 AM63 °FPassing clouds.12 mph64%30.18 "HgN/A
1:50 AM63 °FPassing clouds.10 mph64%30.21 "HgN/A
1:20 AM63 °FPassing clouds.12 mph64%30.21 "HgN/A
12:50 AM63 °FPassing clouds.10 mph64%30.21 "HgN/A
12:20 AM63 °FPassing clouds.13 mph59%30.21 "HgN/A
11:50 PM
Tue, Oct 25
63 °FPassing clouds.9 mph59%30.21 "HgN/A
11:20 PM63 °FPassing clouds.10 mph64%30.21 "HgN/A
10:50 PM63 °FPassing clouds.10 mph64%30.21 "HgN/A
10:20 PM63 °FPassing clouds.7 mph64%30.21 "HgN/A
9:50 PM63 °FPassing clouds.9 mph64%30.21 "HgN/A
9:20 PM63 °FPassing clouds.9 mph64%30.21 "HgN/A
8:50 PM63 °FPassing clouds.12 mph64%30.21 "HgN/A
8:20 PM64 °FPassing clouds.12 mph56%30.21 "HgN/A
Weather by CustomWeather, © 2016

See weather overviewHow to use our weather pages